CW6490 Weather Reports


Display with metric or nautical units.
time (UTC)temp
F
wind
direction
speed
MPH
gust
MPH
rain 1hr
in
rain 24hr
in
rain mn
in
humidity
%
barometer
mb
20260503023823 87 255 0.0 0.0 0.00 0.00 0.00 16 1009.6
20260503022815 87 216 0.0 1.0 0.00 0.00 0.00 17 1009.6
20260503021828 87 216 0.0 1.0 0.00 0.00 0.00 16 1009.5
20260503020822 88 211 0.0 0.0 0.00 0.00 0.00 16 1009.5
20260503015819 89 211 0.0 1.0 0.00 0.00 0.00 15 1009.6
20260503014812 90 215 0.0 2.0 0.00 0.00 0.00 15 1009.7
20260503013822 90 204 0.0 5.0 0.00 0.00 0.00 15 1009.7
20260503012815 91 55 0.0 1.0 0.00 0.00 0.00 15 1009.7
20260503011848 91 73 1.0 3.0 0.00 0.00 0.00 15 1009.8
20260503010820 91 168 0.0 3.0 0.00 0.00 0.00 14 1009.8
20260503005834 91 55 0.0 2.0 0.00 0.00 0.00 15 1009.8
20260503004825 91 57 2.0 3.0 0.00 0.00 0.00 15 1009.9
20260503003819 91 20 1.0 6.0 0.00 0.00 0.00 14 1009.8
20260503002850 92 49 1.0 4.0 0.00 0.00 0.00 14 1009.9
20260503001823 92 10 3.0 6.0 0.00 0.00 0.00 15 1009.9
20260503000819 92 42 2.0 8.0 0.00 0.00 0.00 15 1009.9
20260502235812 92 216 1.0 8.0 0.00 0.00 0.00 15 1010.0
20260502234825 93 183 1.0 6.0 0.00 0.00 0.00 15 1010.0
20260502233816 94 104 0.0 1.0 0.00 0.00 0.00 14 1010.0
20260502232831 93 355 0.0 3.0 0.00 0.00 0.00 16 1010.2
20260502231823 93 23 0.0 4.0 0.00 0.00 0.00 14 1010.1
20260502230820 93 75 1.0 4.0 0.00 0.00 0.00 14 1010.2
20260502225814 93 155 3.0 10.0 0.00 0.00 0.00 15 1010.3
20260502224849 92 218 4.0 8.0 0.00 0.00 0.00 15 1010.4
20260502223819 93 232 2.0 9.0 0.00 0.00 0.00 15 1010.5
20260502222812 92 222 5.0 11.0 0.00 0.00 0.00 15 1010.6
20260502221828 92 212 5.0 10.0 0.00 0.00 0.00 15 1010.7
20260502220822 92 228 2.0 12.0 0.00 0.00 0.00 15 1010.9
20260502215815 92 232 6.0 11.0 0.00 0.00 0.00 15 1011.1
20260502214828 92 221 5.0 12.0 0.00 0.00 0.00 16 1011.3
20260502213821 92 212 4.0 9.0 0.00 0.00 0.00 15 1011.3
20260502212817 92 232 0.0 4.0 0.00 0.00 0.00 18 1011.6
20260502211829 91 12 5.0 12.0 0.00 0.00 0.00 18 1011.7
20260502210823 92 360 4.0 11.0 0.00 0.00 0.00 17 1011.9
20260502204852 92 233 1.0 9.0 0.00 0.00 0.00 18 1012.1
20260502203828 91 160 3.0 8.0 0.00 0.00 0.00 18 1012.3
20260502202820 92 145 4.0 10.0 0.00 0.00 0.00 19 1012.5
20260502201814 91 135 4.0 11.0 0.00 0.00 0.00 19 1012.6
20260502200829 91 169 0.0 9.0 0.00 0.00 0.00 19 1012.7
20260502195821 90 148 2.0 9.0 0.00 0.00 0.00 20 1012.9
20260502194819 91 175 4.0 10.0 0.00 0.00 0.00 21 1012.9
20260502193829 90 141 5.0 12.0 0.00 0.00 0.00 22 1013.0
20260502192824 90 77 5.0 11.0 0.00 0.00 0.00 22 1013.1
20260502191816 90 220 0.0 9.0 0.00 0.00 0.00 23 1013.3
20260502190815 89 71 7.0 15.0 0.00 0.00 0.00 23 1013.5
20260502185828 89 20 3.0 17.0 0.00 0.00 0.00 23 1013.7
20260502184820 88 85 1.0 14.0 0.00 0.00 0.00 24 1013.8
20260502183813 88 64 5.0 14.0 0.00 0.00 0.00 23 1014.0
20260502182846 88 55 5.0 15.0 0.00 0.00 0.00 24 1014.2
20260502181815 88 68 5.0 13.0 0.00 0.00 0.00 24 1014.3
20260502180813 88 182 5.0 12.0 0.00 0.00 0.00 25 1014.3
20260502163832 83 75 6.0 14.0 0.00 0.00 0.00 30 1014.8
20260502162826 83 120 5.0 12.0 0.00 0.00 0.00 30 1014.8
20260502161824 82 89 6.0 13.0 0.00 0.00 0.00 31 1014.8
20260502160817 82 102 6.0 11.0 0.00 0.00 0.00 31 1014.7
20260502151823 80 79 1.0 4.0 0.00 0.00 0.00 34 1014.5
20260502150834 79 59 2.0 4.0 0.00 0.00 0.00 34 1014.5
20260502123816 64 146 0.0 0.0 0.00 0.00 0.00 42 1012.6
20260502122830 64 146 0.0 1.0 0.00 0.00 0.00 44 1012.4
20260502121824 64 7 0.0 0.0 0.00 0.00 0.00 43 1012.3
20260502120818 64 7 0.0 0.0 0.00 0.00 0.00 41 1012.2
20260502115832 65 7 0.0 0.0 0.00 0.00 0.00 40 1012.1
20260502114830 65 7 0.0 0.0 0.00 0.00 0.00 39 1012.1
20260502113825 65 7 0.0 0.0 0.00 0.00 0.00 38 1012.1
20260502112840 66 6 0.0 0.0 0.00 0.00 0.00 39 1012.0
20260502111832 66 118 0.0 0.0 0.00 0.00 0.00 38 1012.0
20260502110827 66 137 0.0 0.0 0.00 0.00 0.00 38 1012.0
20260502105825 66 137 0.0 0.0 0.00 0.00 0.00 38 1011.9
20260502104820 67 137 0.0 0.0 0.00 0.00 0.00 36 1011.8
20260502103813 67 137 0.0 0.0 0.00 0.00 0.00 36 1011.8
20260502102825 68 137 0.0 0.0 0.00 0.00 0.00 35 1011.7
20260502101821 68 149 0.0 0.0 0.00 0.00 0.00 35 1011.7
20260502100819 68 155 0.0 0.0 0.00 0.00 0.00 35 1011.7
20260502090825 71 135 0.0 1.0 0.00 0.00 0.00 33 1011.4
20260502070829 73 62 0.0 2.0 0.00 0.00 0.00 34 1011.1
20260502065824 72 80 0.0 1.0 0.00 0.00 0.00 35 1011.1
20260502064816 72 193 0.0 1.0 0.00 0.00 0.00 35 1011.1
20260502063836 73 204 0.0 1.0 0.00 0.00 0.00 34 1011.1
20260502062830 73 48 0.0 0.0 0.00 0.00 0.00 34 1011.0
20260502061843 73 194 0.0 0.0 0.00 0.00 0.00 33 1010.9
20260502060814 74 82 0.0 0.0 0.00 0.00 0.00 33 1010.8
20260502055849 74 81 0.0 0.0 0.00 0.00 0.00 33 1010.7
20260502054821 74 153 0.0 0.0 0.00 0.00 0.00 32 1010.7
20260502053819 74 158 0.0 0.0 0.00 0.00 0.00 32 1010.5
20260502052853 74 158 0.0 0.0 0.00 0.00 0.00 31 1010.6
20260502051826 75 158 0.0 0.0 0.00 0.00 0.00 31 1010.5
20260502050820 76 158 0.0 0.0 0.00 0.00 0.00 30 1010.5
20260502045831 76 158 0.0 0.0 0.00 0.00 0.00 29 1010.5
20260502044825 77 159 0.0 0.0 0.00 0.00 0.00 28 1010.5
20260502043821 77 159 0.0 0.0 0.00 0.00 0.00 27 1010.5
20260502042815 77 164 0.0 0.0 0.00 0.00 0.00 28 1010.2
20260502041828 77 164 0.0 1.0 0.00 0.00 0.00 28 1010.1
20260502040818 78 150 0.0 0.0 0.00 0.00 0.00 27 1010.0
20260502035815 78 150 0.0 0.0 0.00 0.00 0.00 26 1009.9
20260502034828 79 173 0.0 0.0 0.00 0.00 0.00 26 1009.8
20260502033822 79 197 0.0 1.0 0.00 0.00 0.00 26 1009.7
20260502032815 79 223 0.0 0.0 0.00 0.00 0.00 25 1009.6
20260502031830 80 223 0.0 0.0 0.00 0.00 0.00 24 1009.5
20260502030828 81 223 0.0 0.0 0.00 0.00 0.00 23 1009.4
20260502025821 82 223 0.0 0.0 0.00 0.00 0.00 22 1009.2
20260502024814 83 223 0.0 1.0 0.00 0.00 0.00 21 1009.1